[[{"header":{"parameterUnit":"m.s-1","parameterCategory":1,"la1":30.2991,"la2":30.254,"lo1":-89.0895,"lo2":-89.0444,"dy":0.0017,"dx":0.0017,"nx":28,"ny":28,"refTime":"2024-07-12T09:00:00:Z","depth":0,"parameterNumber":2,"parameterNumberName":"U-component_of_WINDS"},"data":[0,0,0,0,0,0,0,0,0,0,0,0,0,0,0,0,0,0,0,0,0,0,0,0,0,0,0,0,0,0,0,0,0,0,0,0,0,0,0,0,0,0,0,0,0,0,0,0,0,0,0,0,0,0,0,0,0,0,3.9736,3.9737,0,3.9793,3.9793,3.9794,3.9684,3.968,3.9677,3.9673,3.973,3.9735,3.9739,0,0,0,0,0,0,0,0,0,0,0,0,0,3.9531,3.9535,3.9736,3.9737,3.9738,3.9793,3.9793,3.9794,3.9685,3.968,3.9676,3.9672,3.9728,3.9734,3.974,0,0,0,0,0,0,0,0,0,0,0,0,0,3.9607,3.9536,3.9736,3.969,3.9686,3.9792,3.9793,3.9794,3.9685,3.968,3.9675,3.967,3.9726,3.9733,3.9741,3.9895,0,0,3.9763,3.9766,0,0,0,0,0,0,0,0,3.9603,3.9614,3.9696,3.9693,3.9689,3.9726,3.9741,3.9828,3.9687,3.9686,3.9673,3.9667,3.9733,3.9739,3.9762,3.9897,3.99,3.9764,3.9768,3.9771,3.9773,0,0,0,0,0,0,0,3.9598,3.9611,3.9758,3.9697,3.9693,3.9665,3.967,3.9757,3.9739,3.9685,3.9677,3.9686,3.973,3.9755,3.9762,3.99,3.9763,3.977,3.9774,3.9777,4.0162,4.0167,0,0,0,0,0,0,3.9598,3.9608,3.9757,3.976,3.9632,3.9673,3.9678,3.9719,3.9738,3.9735,3.969,3.968,3.9745,3.9754,3.9764,3.9942,3.9771,3.9778,3.9782,4.0156,4.0163,4.0169,0,0,0,0,0,0,3.9594,3.9613,3.9754,3.9682,3.9698,3.9682,3.9729,3.9723,3.9748,3.9741,3.9737,3.9719,3.9741,3.9753,3.9862,3.9943,3.9781,3.9788,4.0149,4.0158,4.0166,4.0302,0,0,0,0,0,0,3.9589,3.9612,3.9671,3.9684,3.9702,3.9853,3.9734,3.9728,3.9761,3.9749,3.9768,3.9765,3.9738,3.9852,3.9869,3.995,3.9794,4.0142,4.0153,4.0163,4.0291,4.0315,4.0335,0,0,0,0,0,3.9582,3.9707,3.9674,3.9693,3.9776,3.9858,3.9868,3.9834,3.9768,3.9827,3.9822,3.9765,3.9932,3.9864,3.9883,3.9967,4.0136,4.015,4.0163,4.028,4.031,4.0335,0,0,0,0,0,0,3.9704,3.9708,3.9672,3.9805,3.9832,3.9839,3.9912,3.9867,3.9912,3.9899,3.9854,3.9859,3.9976,3.9983,3.9907,4.0115,4.0023,4.004,4.0106,4.0134,4.0156,4.015,3.98,0,0,0,0,0,3.9746,3.9814,3.9814,3.9931,3.9947,3.9928,3.9962,3.9933,3.9959,3.997,3.9973,4.0,4.0057,4.0097,4.015,4.0292,4.0293,4.0359,4.0381,4.04,4.0414,4.0487,4.0515,4.0212,4.0212,4.0212,0,0,3.9834,3.9845,3.989,3.9956,3.9973,4.0042,3.9937,4.0016,4.0066,3.9981,4.0083,4.0087,4.0114,4.0239,4.0294,4.0248,4.0499,4.0416,4.0431,4.0436,4.0503,4.0532,4.0558,4.0221,4.022,4.0218,0,0,4.0029,4.0046,4.0144,4.0164,4.0191,4.0178,4.0202,4.0216,4.0214,4.0317,4.0254,4.0313,4.0415,4.0435,4.0459,4.0662,4.061,4.0681,4.0796,4.0868,4.0891,4.0912,4.0981,4.1007,4.0696,4.0696,4.0697,0,4.0135,4.0237,4.02,4.0282,4.0312,4.0239,4.0337,4.0358,4.0402,4.0423,4.0371,4.0496,4.0509,4.0637,4.0686,4.0709,4.0733,4.0677,4.0891,4.0912,4.0931,4.0996,4.1022,4.0704,4.0704,4.0703,4.0702,0,4.0364,4.0436,4.0513,4.0556,4.0595,4.0685,4.066,4.0704,4.0672,4.0663,4.0767,4.078,4.0833,4.0862,4.0833,4.0986,4.0955,4.0899,4.0804,4.0968,4.1029,4.1054,4.0716,4.0713,4.0711,4.0709,0,0,4.0636,4.0658,4.0686,4.0704,4.0729,4.0783,4.087,4.0922,4.0958,4.0992,4.1061,4.1148,4.1095,4.1122,4.1094,4.1158,4.1313,4.1092,4.1092,4.113,4.1479,4.1519,4.1549,4.128,4.1285,4.1289,4.1475,0,4.0827,4.0975,4.0943,4.1088,4.1152,4.1085,4.1159,4.1182,4.1177,4.123,4.1223,4.1285,4.1212,4.1227,4.1287,4.1282,4.1382,4.1268,4.1342,4.1345,4.1334,4.1581,4.1624,4.18,4.1499,4.1503,4.1506,0,4.1068,4.111,4.1261,4.1274,4.13,4.1367,4.1411,4.1464,4.1488,4.148,4.151,4.147,4.1553,4.1461,4.1574,4.1497,4.1526,4.1528,4.1534,4.1537,4.1433,4.1587,4.1855,4.188,4.1544,4.1541,4.1538,0,4.1247,4.1341,4.1442,4.146,4.1479,4.1528,4.1538,4.1556,4.1589,4.1628,4.1649,4.1698,4.1724,4.1762,4.1735,4.1671,4.1852,4.1758,4.1845,4.1845,4.1883,4.188,4.2156,4.1908,4.1908,4.1907,4.1907,0,4.1461,4.1555,4.1522,4.1585,4.1688,4.1651,4.1754,4.1756,4.1773,4.1833,4.1779,4.1837,4.1799,4.1854,4.1834,4.1929,4.1942,4.1936,4.1928,4.1938,4.1939,4.1954,4.194,4.1914,4.1913,4.1911,4.191,0,4.1676,4.1659,4.1764,4.1773,4.1778,4.1853,4.186,4.1917,4.1908,4.1985,4.2001,4.1986,4.2047,4.2025,4.2091,4.2077,4.2197,4.2176,4.2189,4.2182,4.2269,4.226,4.2561,4.2597,4.233,4.2332,4.2334,0,4.1812,4.1883,4.1899,4.1936,4.195,4.201,4.2043,4.201,4.2046,4.2079,4.2132,4.2188,4.2231,4.2331,4.2326,4.2375,4.2352,4.2455,4.2359,4.2366,4.2349,4.2344,4.2349,4.2472,4.2476,4.2478,4.248,0,4.2054,4.2041,4.2091,4.2139,4.218,4.2216,4.2246,4.2279,4.2248,4.2291,4.2353,4.2387,4.2453,4.2508,4.2553,4.2561,4.2515,4.2511,4.2533,4.2542,4.2545,4.2541,4.2237,4.2503,4.2501,4.2499,4.2498,4.2497,4.2231,4.2289,4.231,4.2367,4.2387,4.2416,4.247,4.2467,4.2518,4.2569,4.2547,4.2618,4.2639,4.2693,4.2708,4.2762,4.2722,4.2755,4.2763,4.277,4.278,4.254,4.2771,4.277,4.2769,4.2769,4.2768,0,4.2466,4.2476,4.253,4.2574,4.2618,4.2573,4.2604,4.2644,4.2707,4.2731,4.2774,4.2844,4.2897,4.2897,4.2946,4.2989,4.2969,4.3003,4.2997,4.2999,4.2815,4.2789,4.3018,4.3018,4.3018,4.3018,4.3018,4.3018,4.2594,4.269,4.268,4.2785,4.2793,4.2862,4.2884,4.291,4.2928,4.3009,4.3053,4.3053,4.3066,4.3116,4.3162,4.316,4.3179,4.3221,4.3211,4.3038,4.3013,4.2989,4.2964,4.3226,4.3227,4.339,4.3392,4.3393]},{"header":{"parameterUnit":"m.s-1","parameterCategory":1,"la1":30.2991,"la2":30.254,"lo1":-89.0895,"lo2":-89.0444,"dy":0.0017,"dx":0.0017,"nx":28,"ny":28,"refTime":"2024-07-12T09:00:00:Z","depth":0,"parameterNumber":3,"parameterNumberName":"V-component_of_WINDS"},"data":[0,0,0,0,0,0,0,0,0,0,0,0,0,0,0,0,0,0,0,0,0,0,0,0,0,0,0,0,0,0,0,0,0,0,0,0,0,0,0,0,0,0,0,0,0,0,0,0,0,0,0,0,0,0,0,0,0,0,2.5055,2.5055,0,2.5123,2.5124,2.5125,2.5106,2.5104,2.5103,2.5102,2.5172,2.5175,2.5178,0,0,0,0,0,0,0,0,0,0,0,0,0,2.4904,2.4907,2.5054,2.5055,2.5056,2.5123,2.5124,2.5125,2.5106,2.5104,2.5103,2.5101,2.5171,2.5175,2.5178,0,0,0,0,0,0,0,0,0,0,0,0,0,2.4971,2.4908,2.5054,2.5055,2.5055,2.5123,2.5124,2.5125,2.5106,2.5104,2.5102,2.51,2.517,2.5174,2.5179,2.525,0,0,2.5193,2.5196,0,0,0,0,0,0,0,0,2.4967,2.4976,2.5054,2.5055,2.5056,2.5104,2.5097,2.5167,2.5107,2.5087,2.5102,2.5099,2.5151,2.5157,2.5175,2.5254,2.5257,2.5194,2.5197,2.5199,2.52,0,0,0,0,0,0,0,2.4962,2.4973,2.5082,2.5055,2.5056,2.5051,2.5058,2.511,2.513,2.5089,2.5087,2.5096,2.5151,2.517,2.5176,2.5258,2.5194,2.5198,2.5201,2.5203,2.5394,2.5396,0,0,0,0,0,0,2.4957,2.4969,2.508,2.5084,2.5005,2.5055,2.5063,2.509,2.5129,2.5133,2.5097,2.5095,2.5163,2.5171,2.5179,2.5262,2.5199,2.5203,2.5206,2.5392,2.5395,2.5397,0,0,0,0,0,0,2.4954,2.4967,2.5077,2.5026,2.504,2.506,2.5091,2.5093,2.5112,2.5136,2.5139,2.5113,2.5162,2.5172,2.5232,2.5264,2.5205,2.521,2.5389,2.5393,2.5396,2.543,0,0,0,0,0,0,2.495,2.4966,2.4994,2.5027,2.5043,2.513,2.5093,2.5096,2.512,2.5117,2.5152,2.5156,2.5161,2.5225,2.5236,2.5269,2.5213,2.5387,2.5391,2.5395,2.5426,2.5434,2.5441,0,0,0,0,0,2.4945,2.5002,2.4996,2.5009,2.5078,2.5132,2.514,2.5145,2.5123,2.5151,2.5165,2.5154,2.5259,2.5231,2.5244,2.5279,2.5384,2.539,2.5394,2.5423,2.5433,2.5441,0,0,0,0,0,0,2.4974,2.5007,2.5,2.507,2.5098,2.5128,2.5164,2.5156,2.5191,2.5187,2.5191,2.5199,2.526,2.5276,2.5244,2.5348,2.5318,2.5326,2.5335,2.5345,2.5352,2.5346,2.5217,0,0,0,0,0,2.4988,2.5029,2.5056,2.5115,2.5129,2.5144,2.5168,2.5168,2.5198,2.5209,2.5229,2.5257,2.5296,2.5321,2.5359,2.5429,2.5434,2.5459,2.5466,2.5472,2.5479,2.5513,2.5523,2.5414,2.5413,2.5413,0,0,2.5019,2.5042,2.5068,2.5121,2.5143,2.5184,2.5154,2.52,2.523,2.5216,2.5273,2.5288,2.532,2.5384,2.5413,2.5399,2.551,2.5479,2.5483,2.5486,2.5519,2.553,2.5539,2.5417,2.5416,2.5416,0,0,2.5095,2.5118,2.5168,2.519,2.5223,2.5231,2.5243,2.5274,2.5283,2.534,2.533,2.5365,2.5433,2.5455,2.5475,2.5555,2.5545,2.5568,2.5606,2.564,2.5648,2.5656,2.5682,2.5692,2.5574,2.5574,2.5574,0,2.5129,2.5191,2.5195,2.524,2.5263,2.5252,2.5301,2.5322,2.5365,2.5381,2.5364,2.5446,2.5467,2.5534,2.5553,2.5571,2.5583,2.5563,2.5647,2.5655,2.5662,2.5687,2.5697,2.5576,2.5576,2.5576,2.5576,0,2.523,2.5272,2.5309,2.5349,2.5376,2.5424,2.5433,2.546,2.5458,2.5468,2.5524,2.5548,2.5588,2.5605,2.5604,2.5671,2.5661,2.5646,2.5616,2.5674,2.5698,2.5707,2.558,2.5579,2.5578,2.5578,0,0,2.5328,2.5367,2.5381,2.5397,2.5431,2.5464,2.5509,2.5548,2.5569,2.5599,2.5636,2.5692,2.5677,2.5699,2.5701,2.573,2.5789,2.5711,2.5712,2.5722,2.586,2.587,2.5881,2.5783,2.5784,2.5786,2.5857,0,2.5405,2.5485,2.5488,2.5561,2.5598,2.5587,2.5626,2.565,2.566,2.5693,2.5704,2.5742,2.5721,2.5734,2.5763,2.5776,2.5816,2.5771,2.5815,2.5817,2.5806,2.5894,2.5905,2.5971,2.5866,2.5868,2.5869,0,2.5506,2.5537,2.5613,2.5638,2.5654,2.5689,2.5723,2.5755,2.5781,2.5786,2.581,2.5806,2.585,2.5819,2.5879,2.5848,2.5866,2.5875,2.5877,2.5881,2.5845,2.5897,2.5993,2.6002,2.5884,2.5883,2.5882,0,2.5566,2.5627,2.5679,2.5695,2.5726,2.575,2.5764,2.5788,2.581,2.584,2.5853,2.5888,2.5907,2.5933,2.5937,2.5915,2.5996,2.5967,2.6,2.6,2.6017,2.6016,2.6114,2.6032,2.6032,2.6032,2.6031,0,2.5651,2.5697,2.5706,2.5739,2.5789,2.5791,2.5841,2.5853,2.5874,2.5907,2.59,2.5931,2.5936,2.5967,2.5971,2.6018,2.6028,2.6031,2.6032,2.6031,2.603,2.6042,2.6037,2.6034,2.6034,2.6033,2.6033,0,2.5727,2.5735,2.5791,2.5815,2.5822,2.5858,2.5878,2.5907,2.5916,2.5957,2.5967,2.598,2.6016,2.6024,2.6068,2.607,2.6125,2.6122,2.6116,2.6115,2.6147,2.6143,2.6256,2.627,2.618,2.6181,2.6182,0,2.578,2.5815,2.5841,2.5863,2.5877,2.5912,2.5934,2.5937,2.5959,2.5989,2.6015,2.605,2.6079,2.6137,2.615,2.6183,2.6179,2.6216,2.6184,2.6181,2.6176,2.6173,2.6175,2.6221,2.6222,2.6223,2.6224,0,2.5871,2.5873,2.5904,2.5936,2.5962,2.5987,2.6011,2.6029,2.6035,2.606,2.6097,2.6119,2.6162,2.6196,2.6228,2.6241,2.6233,2.6234,2.6243,2.6242,2.6236,2.6237,2.6131,2.6231,2.623,2.623,2.623,2.6229,2.5936,2.5965,2.5987,2.6021,2.6039,2.6061,2.6089,2.61,2.6131,2.6165,2.6165,2.6205,2.6227,2.6268,2.6283,2.6313,2.6301,2.6315,2.6318,2.6321,2.6323,2.6232,2.6319,2.6319,2.6319,2.6319,2.6319,0,2.6025,2.6038,2.6069,2.6102,2.6128,2.6118,2.6143,2.6165,2.62,2.6221,2.6248,2.6289,2.6321,2.6336,2.6367,2.6388,2.6385,2.6396,2.6394,2.6396,2.6333,2.6321,2.6398,2.6398,2.6398,2.6398,2.6398,2.6398,2.6074,2.6121,2.6125,2.618,2.6193,2.6231,2.6246,2.6265,2.6282,2.6327,2.6354,2.6363,2.638,2.6413,2.6441,2.6444,2.6455,2.6468,2.6469,2.641,2.6401,2.6394,2.6382,2.6471,2.6471,2.653,2.653,2.6531]}]]